星链-30883 (STARLINK-30883 )

导读 | 豆包AI

STARLINK-30883是美国SpaceX公司星链(Starlink)卫星互联网项目的一颗低轨卫星,于2023年11月8日发射升空。作为星链星座组网的组成部分,它旨在为全球偏远地区、基础设施覆盖不足区域提供高速低延迟宽带互联网服务,助力实现全球连续网络覆盖,进一步完善星链星座的通信服务能力。星链项目计划总计部署数万颗低轨卫星,该卫星是项目规模扩张中的一环。

基本信息
目录编号:
58252
目录名称:
STARLINK-30883
国际标识:
2023-171Y
轨道中心:
EARTH
卫星名称:
星链-30883
卫星全名:
星链-30883 (STARLINK-30883 )
卫星状态:
在轨 (已飞行904 天)
发射日期:
2023-11-08 UTC
国别 :
美国 (US)
星等 :
--
轨道信息
数据来源 国际轨道数据
星历时间: 2026-04-30T09:32:01+0800
18小时前
查看轨道信息
半长轴: 6861.183km
偏心率: 0.0001833
轨道倾角: 43.004°
近地点辐角 258.732°
升交点赤经 354.901°
平近点角 101.333°
近地点: 481.788km
远地点: 484.304km
周期: 94.267分钟
每日圈数: 15.275813
详细信息
固有亮度:
5
最大亮度:
0.3
卫星平台:
Starlink v2.0 mini
覆盖范围:
全球
运营商:
太空探索技术公司
运营商所在国:
美国
制造商(研发单位):
太空探索技术公司
制造商所在国:
美国
使用方式:
暂无
卫星简介
星链(Starlink)计划是由太空探索技术公司(SpaceX)提出的一个巨型低轨卫星互联网星座项目,计划在2019年至2024年间在太空搭建由约1.2万颗卫星组成的“星链”网络,其中1584颗将部署在地球上空550千米处的近地轨道,并从2020年开始工作。该卫星仍在工作。
2D轨道图
3D轨道图
轨道高度分析图
轨道倾角分析图
轨道综合分析图
查看轨道综合分析图